User: anonymous   Login
Location: Unspecified
(0.0000°N, 0.0000°E)
Time: 01:38:58
(UTC+00:00)
Language:

NOSS 3-2 (C) - Orbit

View from above orbital plane
View from above orbital plane
View from above satellite
View from above satellite

Ground track
Ground track

The orbit data is extracted from the following two-line orbital elements,

1 28097U 03054C   17116.96719784 0.00000000  00000-0  00000-0 0    08
2 28097  63.4140  87.1233 0299000 358.2022   1.7977 13.40736507    09
Epoch (UTC): 26 April 2017 23:12:45
Eccentricity: 0.0299000
inclination: 63.4140°
perigee height: 883 km
apogee height: 1330 km
right ascension of ascending node: 87.1233°
argument of perigee: 358.2022°
revolutions per day: 13.40736507
mean anomaly at epoch: 1.7977°
orbit number at epoch: 0

The dashed part of the orbit path shows where the satellite is in the earth's shadow,  

DLR